Regional Weather Roundup
Issued by NWS New Orleans/Baton Rouge, LA

Home | Current Version | Previous Version | Graphics & Text | Print | Product List | Glossary On
Versions: 1 2 3 4 5 6 7 8 9 10 11 12 13 14 15 16 17 18 19 20 21 22 23 24 25 26 27 28 29 30 31 32 33 34 35 36 37 38 39 40 41 42 43 44 45 46 47 48 49 50
385
ASUS44 KLIX 262205
RWRLIX
NEW ORLEANS REGIONAL WEATHER ROUNDUP
NATIONAL WEATHER SERVICE NEW ORLEANS LA
400 PM CST THU FEB 26 2015

NOTE: "FAIR" INDICATES FEW OR NO CLOUDS BELOW 12,000 FEET WITH NO
      SIGNIFICANT WEATHER AND/OR OBSTRUCTIONS TO VISIBILITY.
      SKY/WX - SKY CONDITION AND SIGNIFICANT WEATHER.
      TMP - AIR TEMPERATURE.     DP    - DEWPOINT TEMPERATURE.
      RH  - RELATIVE HUMIDITY.   PRES  - PRESSURE.
      HI  - HEAT INDEX.          WCI   - WIND CHILL INDEX.

*  THESE STATIONS ARE NOT NWS OR FAA STATIONS AND ARE NOT UNDER
   NWS QUALITY CONTROL.

LAZ038-040-048-061>063-065>067-069-262300-
SOUTHEAST LOUISIANA

CITY           SKY/WX    TMP DP  RH WIND       PRES   REMARKS
N.O. AUDUBON     N/A     48  38  70 MISG        N/A
N.O. INTL ARPT PTSUNNY   47  36  65 N13       30.10S
N.O. LAKEFRONT SUNNY     50  35  56 N17       30.11R
SLIDELL        SUNNY     50  34  54 N12       30.09R
BATON ROUGE    MOSUNNY   52  31  44 NE8       30.12R
BOOTHVILLE     CLOUDY    47  39  74 N7        30.09R
BELLE CHASSE   PTSUNNY   48  34  58 N10G17    30.09R
BOGALUSA*        N/A     50  32  50 NE8       30.12S
GALLIANO*      MOCLDY    49  38  66 MISG      30.10R
NEW ROADS*       N/A     49  33  54 N14       30.14R
GONZALES*        N/A     50  32  51 N10       30.11R
HAMMOND*       MOSUNNY   52  30  43 N8        30.12S
HOUMA*         NOT AVBL
PORT FOURCHON* CLOUDY    46  37  71 N14G21    30.13R

$$

MSZ070-080>082-262300-
SOUTHERN MISSISSIPPI

CITY           SKY/WX    TMP DP  RH WIND       PRES   REMARKS
MCCOMB         SUNNY     50  30  46 N13       30.11R
GULFPORT       SUNNY     49  33  54 N15       30.07R
BILOXI         SUNNY     48  35  61 N9        30.07R
PASCAGOULA     SUNNY     49  35  58 N10G20    30.06S
STENNIS ARPT*  SUNNY     48  30  49 N14       30.08S

$$

COASTAL OBSERVATIONS
LAKE AND NEARSHORE STATIONS

STATION/POSITION TIME  TEMP    WIND        PRES    WAVE
                       AIR SEA DIR/SP/G            HT/PER
                 (UTC) (F)     (DEG/KT/KT) (MB)    (FT/S)
PASCAGOULA       2200   48     350/ 10/ 15 1017.5
WAVELAND YACHT   2200   47 51  350/ 15/ 18 1017.9
GRAND ISLE       2200   46 53   30/ 12/ 17 1019.2
SOUTHWEST PASS   2200   47 49   20/ 17/ 20 1018.9
NEW CANAL        2200   45     360/ 14/ 16 1019.5
SHELL BEACH      2200   45 51  340/ 14/ 16 1018.6

OFFSHORE STATIONS

STATION/POSITION TIME  TEMP    WIND        PRES    WAVE
                       AIR SEA DIR/SP/G            HT/PER
                 (UTC) (F)     (DEG/KT/KT) (MB)    (FT/S)
64 S DAUPHIN ISL 2112   48 64   10/ 14/ 17 1017.7    4/ 7

$$




USA.gov is the U.S. government's official web portal to all federal, state and local government web resources and services.